BREEZE-M R/B, 40506

Orbit data source: Space-Track

BREEZE-M R/B, 40506 is space debris in HEO originally from a launch on Wed, 18 Mar 2015 UTC launched from the Tyuratam Missile And Space Complex (TTMTR). Debris objects in space refer to the collection of defunct objects orbiting the Earth. Examples of debris include non-operational satellites, rocket bodies, and fragments generated from explosions, collisions, or faulty payload assembly.

Loading next visibility...
Identifier
40506, 2015-012B
Orbit
HEO
Country
Flag of CISCIS
Related business
Manufacturer
Khrunichev
Mission
Spacecraft
Bus & Motor
BRIZ, Unknown motor
Mass
~1,600 kg wet, 1,600 kg dry
Launch date (UTC)
2015-03-18 (11 years ago)
Launch vehicle
Unknown
Launch site
Tyuratam Missile And Space Complex (TTMTR)
Object type
Payload
Rocket body
Debris
Shape & HBR
Cyl, 2.0 m
Radar Cross Section
15.135 m², Large (>1 m²)

Expand to show TLE details & history
Last TLE update: 2 days ago

TLE from 2 days ago
0 BREEZE-M R/B
1 40506U 15012B   25337.44917218  .00000115  00000-0  00000-0 0  9997
2 40506  19.6366 215.5735 5838240 113.9031 316.0787  2.11099113 82610
Epoch: 2025-12-03T10:46Z
TLE epoch observation values (Epoch: 2025-12-03T10:46:48.476Z)
Latitude
0.00001°
Longitude
-18.53399°
Altitude
15,777.232 km
Speed
4.523 km/s
True Right ascension
14h 22m 45s
True Declination
0° 00' 00"
Sunlit
Object was in daylight at epoch
Visualization orbit readout
Latitude
Unknown
Longitude
Unknown
Altitude
Unknown
Speed
Unknown
Apparent Right ascension
Unknown
Apparent Declination
Unknown
Sunlit
N/A
Visualization observer readout
Local Sidereal Time
06:15:24
Azimuth
Unknown
Elevation
Unknown
Doppler factor
Unknown
Orbital elements
Apogee altitude
34,281.467 km
Perigee altitude
4,305.848 km
Semi-major axis
25,671.794 km
Eccentricity
0.58382
Inclination
19.6366°
RAAN
215.5735°
Arg. of periapsis
113.9031°
True anomaly
246.12399°
Mean anomaly
316.0787°
Eccentric anomaly
283.56057°
Mean motion
0.52767 °/min
Orbital period
682.25 mins
BSTAR
0
Loading maneuver chart data...
Computing Atmospheric mass density...
Loading historical data...
Loading historical data...
Loading historical data...
Loading historical data...
Loading historical data...
Loading historical data...
Loading historical data...
Other satellites on launch #12 in the year 2015 (2015-03-18 UTC)

Documentation

Showing up to 5 results
|